GW0870 Weather Reports


time (UTC)temp
F
wind
direction
speed
knots
gust
knots
rain 1hr
in
rain 24hr
in
rain mn
in
humidity
%
barometer
mb
20260510051601 58 0 0.0 0.0 0.00 0.00 0.00 92 1012.5
20260510050049 58 0 0.0 0.0 0.00 0.00 0.00 92 1012.9
20260510044557 59 0 0.0 0.0 0.00 0.00 0.00 92 1012.8
20260510043046 59 0 0.0 0.0 0.00 0.00 0.00 92 1012.8
20260510041550 59 0 0.0 0.0 0.00 0.00 0.00 92 1012.9
20260510040046 59 0 0.0 0.0 0.00 0.00 0.00 92 1012.8
20260510034546 59 0 0.0 0.0 0.00 0.00 0.00 91 1012.9
20260510033042 60 0 0.0 0.0 0.00 0.00 0.00 91 1013.0
20260510031547 60 0 0.0 0.0 0.00 0.00 0.00 91 1012.9
20260510030043 61 0 0.0 0.0 0.00 0.00 0.00 90 1012.8
20260510024551 61 0 0.0 0.0 0.00 0.00 0.00 90 1012.8
20260510023043 61 0 0.0 0.0 0.00 0.00 0.00 89 1012.7
20260510021542 62 0 0.0 0.0 0.00 0.00 0.00 88 1012.7
20260510020040 62 0 0.0 0.0 0.00 0.00 0.00 88 1012.5
20260510014540 63 0 0.0 0.0 0.00 0.00 0.00 87 1012.4
20260510013053 63 0 0.0 0.9 0.00 0.00 0.00 86 1012.0
20260510011546 64 0 0.0 0.0 0.00 0.00 0.00 84 1011.9
20260510010048 65 0 0.0 0.0 0.00 0.00 0.00 81 1011.7
20260510004547 66 0 0.0 0.0 0.00 0.00 0.00 80 1011.3
20260510003057 67 0 0.0 1.7 0.00 0.00 0.00 79 1011.0
20260510001551 68 178 0.0 0.0 0.00 0.00 0.00 77 1010.8
20260510000058 69 162 0.0 0.0 0.00 0.00 0.00 75 1010.7
20260509234602 70 0 0.0 0.9 0.00 0.00 0.00 73 1010.5
20260509233054 70 141 0.0 2.6 0.00 0.00 0.00 72 1010.6
20260509231601 70 246 0.9 5.2 0.00 0.00 0.00 71 1010.6
20260509224551 72 0 0.9 5.2 0.00 0.00 0.00 69 1010.1
20260509223048 72 205 0.9 5.2 0.00 0.00 0.00 68 1010.2
20260509221546 73 301 2.6 8.7 0.00 0.00 0.00 65 1010.0
20260509220050 73 165 2.6 6.1 0.00 0.00 0.00 67 1009.9
20260509214545 73 102 1.7 6.1 0.00 0.00 0.00 67 1009.8
20260509213045 73 232 0.9 7.0 0.00 0.00 0.00 66 1009.9
20260509211552 72 205 1.7 7.0 0.00 0.00 0.00 66 1009.7
20260509210058 73 143 1.7 7.0 0.00 0.00 0.00 66 1009.8
20260509204545 73 204 2.6 9.6 0.00 0.00 0.00 65 1010.0
20260509203046 73 186 1.7 8.7 0.00 0.00 0.00 67 1009.9
20260509201555 73 182 3.5 9.6 0.00 0.00 0.00 66 1009.7
20260509200052 73 199 2.6 8.7 0.00 0.00 0.00 66 1010.1
20260509194547 73 238 1.7 7.8 0.00 0.00 0.00 68 1009.9
20260509193053 72 110 1.7 5.2 0.00 0.00 0.00 69 1010.1
20260509191546 71 208 1.7 6.1 0.00 0.00 0.00 70 1010.4
20260509190104 71 116 1.7 5.2 0.00 0.00 0.00 71 1010.6
20260509184552 71 117 1.7 7.0 0.00 0.00 0.00 72 1010.7
20260509183048 71 164 0.9 4.3 0.00 0.00 0.00 72 1010.6
20260509181545 69 213 1.7 6.1 0.00 0.00 0.00 73 1010.8
20260509180052 69 218 1.7 6.1 0.00 0.00 0.00 74 1011.0
20260509174543 69 155 1.7 4.3 0.00 0.00 0.00 73 1011.2
20260509173056 68 105 1.7 3.5 0.00 0.00 0.00 74 1011.2
20260509171549 68 247 2.6 8.7 0.00 0.00 0.00 73 1011.4
20260509170058 69 225 2.6 7.0 0.00 0.00 0.00 72 1011.6
20260509164549 69 244 1.7 7.0 0.00 0.00 0.00 75 1011.7
20260509163058 68 207 2.6 4.3 0.00 0.00 0.00 75 1012.1
20260509161553 68 220 0.9 6.1 0.00 0.00 0.00 77 1012.3
20260509160051 67 147 0.9 5.2 0.00 0.00 0.00 77 1012.5
20260509154557 66 247 1.7 7.0 0.00 0.00 0.00 80 1012.4
20260509153045 66 161 1.7 3.5 0.00 0.00 0.00 81 1012.2
20260509151542 64 134 0.9 3.5 0.00 0.00 0.00 83 1012.3
20260509150045 64 134 0.9 5.2 0.00 0.00 0.00 83 1012.4
20260509144539 64 115 0.9 5.2 0.00 0.00 0.00 85 1012.4
20260509143054 63 214 0.0 7.0 0.00 0.00 0.00 86 1012.2
20260509141546 62 134 1.7 5.2 0.00 0.00 0.00 86 1012.5
20260509140043 61 159 0.9 6.1 0.00 0.00 0.00 88 1012.7
20260509134540 61 185 0.0 3.5 0.00 0.00 0.00 88 1013.0
20260509133040 60 223 0.9 1.7 0.00 0.00 0.00 89 1012.8
20260509131547 59 0 0.0 0.9 0.00 0.00 0.00 89 1013.1
20260509130053 58 127 0.0 0.9 0.00 0.00 0.00 91 1013.1
20260509124553 57 0 0.0 1.7 0.00 0.00 0.00 92 1013.4
20260509123050 55 0 0.0 1.7 0.00 0.00 0.00 92 1013.4
20260509121556 55 245 0.0 1.7 0.00 0.00 0.00 93 1013.3
20260509120049 54 219 0.0 1.7 0.00 0.00 0.00 94 1012.8
20260509114559 52 0 0.0 0.0 0.00 0.00 0.00 94 1013.0
20260509113044 51 0 0.0 0.0 0.00 0.00 0.00 94 1013.1
20260509111542 50 0 0.0 0.0 0.00 0.00 0.00 94 1013.2
20260509110041 49 0 0.0 0.0 0.00 0.00 0.00 94 1012.9
20260509104547 49 0 0.0 0.0 0.00 0.00 0.00 94 1013.1
20260509103039 48 0 0.0 0.0 0.00 0.00 0.00 93 1012.8
20260509101548 48 0 0.0 0.0 0.00 0.00 0.00 93 1012.5
20260509100046 48 0 0.0 0.0 0.00 0.00 0.00 93 1012.4
20260509094548 48 0 0.0 0.0 0.00 0.00 0.00 92 1012.3
20260509093043 49 0 0.0 0.0 0.00 0.00 0.00 92 1012.3
20260509091542 49 0 0.0 0.0 0.00 0.00 0.00 93 1012.4
20260509090056 49 0 0.0 0.0 0.00 0.00 0.00 92 1012.4
20260509084547 49 0 0.0 0.0 0.00 0.00 0.00 93 1012.3
20260509083050 49 0 0.0 0.0 0.00 0.00 0.00 92 1012.4
20260509081541 49 0 0.0 0.0 0.00 0.00 0.00 92 1012.2
20260509080104 50 0 0.0 0.0 0.00 0.00 0.00 92 1012.5
20260509074544 50 0 0.0 0.0 0.00 0.00 0.00 91 1012.8
20260509073043 50 0 0.0 0.0 0.00 0.00 0.00 91 1012.9
20260509071551 51 0 0.0 0.0 0.00 0.00 0.00 91 1013.2
20260509070046 51 0 0.0 0.0 0.00 0.00 0.00 90 1013.2
20260509064548 51 0 0.0 0.0 0.00 0.00 0.00 90 1013.3
20260509063100 52 0 0.0 0.0 0.00 0.00 0.00 90 1013.5
20260509061544 52 0 0.0 0.0 0.00 0.00 0.00 89 1013.7
20260509060044 53 0 0.0 0.0 0.00 0.00 0.00 88 1013.8
20260509054553 53 0 0.0 0.0 0.00 0.00 0.00 88 1014.1
20260509053050 53 0 0.0 0.0 0.00 0.00 0.00 87 1014.4